Retour au catalogue

GLOBAL-16

ActifCommunicationsVLEO
NORAD 49950·PAYLOAD·🇺🇸 United States

Lancé Dec 9, 2021 depuis Rocket Lab Launch Complex 1

Loading…

Prochains Passages (prochaines 24 heures)

TLE

FraisSource: Space-Track

Époque: Sep 14, 2026, 00:35 UTC

1 49950U 21120B   26257.02453702  .00028064  00000-0  42018-3 0  9996
2 49950  41.9937 243.7048 0014114 155.6587 204.4927 15.54263004268653

Suivez GLOBAL-16 en temps réel avec AllMySat

Download on the App Store